Location: Olsztyn
(53.7767°N, 20.4765°E)
Time: 15:41:33
(UTC+02:00)

deb Explorer IX - Visible Passes

Search period start: 14 July 2024 00:00
Search period end: 24 July 2024 00:00
Orbit: 511 x 880 km, 38.7° (Epoch: 13 July)

Date Brightness Start Highest point End Pass type
(mag) Time Alt. Az. Time Alt. Az. Time Alt. Az.
17 Jul ? 23:19:27 10° SSW 23:19:29 10° SSW 23:19:29 10° SSW visible
18 Jul ? 22:17:37 10° SSW 22:19:47 12° SSE 22:20:52 12° SSE visible
19 Jul ? 22:57:35 10° SSW 23:00:30 15° S 23:00:30 15° S visible
20 Jul ? 21:55:21 10° SSW 21:58:19 15° S 22:01:09 10° SE visible
20 Jul ? 23:38:31 10° SW 23:39:51 13° SSW 23:39:51 13° SSW visible
21 Jul ? 22:35:46 10° SW 22:38:59 16° S 22:40:23 14° SSE visible
22 Jul ? 21:33:15 10° SW 21:36:42 16° S 21:40:00 10° SE visible
22 Jul ? 23:16:59 10° SW 23:19:23 13° SSW 23:19:23 13° SSW visible
23 Jul ? 22:13:57 10° SW 22:17:18 16° S 22:19:42 12° SSE visible
